When you browse on this site, cookies collect data to enhance your experience and personalize the content and advertising you see.
Visit our Privacy Policy to learn more. By continuing to use the site, you agree to this use of cookies and data.
  • In France
  • List of Countries
  • For 7 days
  • Water Temperature
  • Satellite Maps
  • Weather Map
  • Weather Widgets
  • user-avatar
    Login

    Hourly Weather Kipungo

    Today, 23 January, Wednesday

    Time Temperature Precipitation Wind Pressure Humidity
    00:00 +20°C° 0.2 mm 2 mps 653 mmHg 92%
    01:00 +20°C° 0.2 mm 2 mps 653 mmHg 93%
    02:00 +20°C° 1.3 mm 2 mps 653 mmHg 93%
    03:00 +20°C° 1.3 mm 2 mps 653 mmHg 93%
    04:00 +19°C° 1.3 mm 2 mps 653 mmHg 94%
    05:00 +19°C° 0.9 mm 2 mps 653 mmHg 94%
    06:00 +19°C° 0.9 mm 2 mps 654 mmHg 93%
    07:00 +19°C° 0.9 mm 2 mps 654 mmHg 93%
    08:00 +20°C° 0.2 mm 2 mps 654 mmHg 88%
    09:00 +21°C° 0.2 mm 2 mps 654 mmHg 83%
    10:00 +23°C° 0.2 mm 1 mps 655 mmHg 77%
    11:00 +25°C° 0 mm 1 mps 655 mmHg 69%
    12:00 +27°C° 0 mm 1 mps 655 mmHg 61%
    13:00 +29°C° 0 mm 1 mps 655 mmHg 53%
    14:00 +29°C° 0.1 mm 1 mps 654 mmHg 53%
    15:00 +27°C° 0.1 mm 0 mps 654 mmHg 52%
    16:00 +27°C° 0.1 mm 0 mps 653 mmHg 52%
    17:00 +28°C° 0 mm 1 mps 653 mmHg 57%
    18:00 +26°C° 0 mm 1 mps 653 mmHg 63%
    19:00 +25°C° 0 mm 1 mps 652 mmHg 69%
    20:00 +24°C° 0 mm 2 mps 653 mmHg 73%
    21:00 +23°C° 0 mm 2 mps 653 mmHg 77%
    22:00 +21°C° 0 mm 2 mps 653 mmHg 81%
    23:00 +21°C° 0 mm 2 mps 653 mmHg 84%

    Tomorrow, 24 January, Thursday

    Time Temperature Precipitation Wind Pressure Humidity
    00:00 +20°C° 0 mm 2 mps 653 mmHg 87%
    01:00 +20°C° 0 mm 1 mps 653 mmHg 90%
    02:00 +19°C° 0 mm 2 mps 652 mmHg 91%
    03:00 +19°C° 0 mm 2 mps 652 mmHg 92%
    04:00 +18°C° 0 mm 2 mps 652 mmHg 93%
    05:00 +19°C° 0 mm 2 mps 652 mmHg 91%
    06:00 +20°C° 0 mm 1 mps 653 mmHg 90%
    07:00 +21°C° 0 mm 1 mps 653 mmHg 88%
    08:00 +22°C° 0 mm 0 mps 654 mmHg 74%
    09:00 +26°C° 0 mm 0 mps 655 mmHg 60%
    10:00 +29°C° 0 mm 0 mps 656 mmHg 46%
    11:00 +32°C° 0 mm 1 mps 655 mmHg 41%
    12:00 +33°C° 0 mm 1 mps 655 mmHg 36%
    13:00 +34°C° 0 mm 1 mps 654 mmHg 31%
    14:00 +34°C° 0 mm 2 mps 653 mmHg 33%
    15:00 +34°C° 0 mm 2 mps 653 mmHg 35%
    16:00 +32°C° 0 mm 2 mps 652 mmHg 37%
    17:00 +30°C° 0 mm 1 mps 652 mmHg 42%
    18:00 +28°C° 0 mm 1 mps 652 mmHg 47%
    19:00 +26°C° 0 mm 1 mps 652 mmHg 53%
    20:00 +26°C° 0 mm 1 mps 652 mmHg 56%
    21:00 +25°C° 0 mm 1 mps 653 mmHg 60%
    22:00 +24°C° 0 mm 1 mps 653 mmHg 64%
    23:00 +24°C° 0.1 mm 1 mps 653 mmHg 67%

    Day after tomorrow, 25 January, Friday

    Time Temperature Precipitation Wind Pressure Humidity
    00:00 +23°C° 0.1 mm 2 mps 653 mmHg 71%
    01:00 +23°C° 0.1 mm 2 mps 653 mmHg 75%
    02:00 +21°C° 0 mm 2 mps 652 mmHg 79%
    03:00 +22°C° 0 mm 1 mps 652 mmHg 82%
    04:00 +21°C° 0 mm 1 mps 651 mmHg 86%
    05:00 +21°C° 0 mm 1 mps 652 mmHg 84%
    06:00 +22°C° 0 mm 1 mps 652 mmHg 82%
    07:00 +20°C° 0 mm 0 mps 653 mmHg 79%
    08:00 +24°C° 0 mm 0 mps 654 mmHg 68%
    09:00 +27°C° 0 mm 0 mps 655 mmHg 56%
    10:00 +31°C° 0 mm 0 mps 656 mmHg 45%
    11:00 +33°C° 0 mm 1 mps 656 mmHg 40%
    12:00 +34°C° 0 mm 1 mps 655 mmHg 35%
    13:00 +35°C° 0 mm 2 mps 655 mmHg 31%
    14:00 +35°C° 0 mm 2 mps 654 mmHg 33%
    15:00 +34°C° 0 mm 2 mps 653 mmHg 36%
    16:00 +32°C° 0 mm 1 mps 652 mmHg 38%
    17:00 +30°C° 0.1 mm 1 mps 652 mmHg 46%
    18:00 +28°C° 0.1 mm 2 mps 652 mmHg 54%
    19:00 +26°C° 0.1 mm 2 mps 653 mmHg 62%
    20:00 +25°C° 0.2 mm 2 mps 653 mmHg 67%
    21:00 +24°C° 0.2 mm 2 mps 653 mmHg 72%
    22:00 +23°C° 0.2 mm 2 mps 654 mmHg 77%
    23:00 +23°C° 0 mm 1 mps 654 mmHg 78%

    26 January, Saturday

    Time Temperature Precipitation Wind Pressure Humidity
    00:00 +23°C° 0 mm 1 mps 654 mmHg 78%
    01:00 +23°C° 0 mm 1 mps 653 mmHg 78%
    02:00 +23°C° 0 mm 1 mps 653 mmHg 79%
    03:00 +23°C° 0 mm 1 mps 653 mmHg 80%
    04:00 +23°C° 0 mm 1 mps 653 mmHg 80%
    05:00 +23°C° 0 mm 1 mps 654 mmHg 80%
    06:00 +23°C° 0 mm 1 mps 654 mmHg 80%
    07:00 +23°C° 0 mm 1 mps 655 mmHg 80%
    08:00 +26°C° 0.3 mm 1 mps 655 mmHg 69%
    09:00 +27°C° 0.3 mm 0 mps 656 mmHg 58%
    10:00 +30°C° 0.3 mm 0 mps 657 mmHg 46%
    11:00 +33°C° 0 mm 1 mps 657 mmHg 42%
    12:00 +34°C° 0 mm 1 mps 656 mmHg 37%
    13:00 +36°C° 0 mm 2 mps 655 mmHg 32%
    14:00 +34°C° 0 mm 1 mps 655 mmHg 34%
    15:00 +33°C° 0 mm 1 mps 654 mmHg 36%
    16:00 +32°C° 0 mm 1 mps 654 mmHg 38%
    17:00 +31°C° 0 mm 1 mps 654 mmHg 42%
    18:00 +29°C° 0 mm 1 mps 654 mmHg 47%
    19:00 +28°C° 0 mm 2 mps 654 mmHg 51%
    20:00 +27°C° 0 mm 2 mps 654 mmHg 57%
    21:00 +26°C° 0 mm 2 mps 654 mmHg 64%
    22:00 +24°C° 0 mm 2 mps 655 mmHg 70%
    23:00 +24°C° 0 mm 2 mps 654 mmHg 75%

    27 January, Sunday

    Time Temperature Precipitation Wind Pressure Humidity
    00:00 +23°C° 0 mm 2 mps 654 mmHg 80%
    01:00 +21°C° 0 mm 2 mps 653 mmHg 85%
    02:00 +21°C° 0.4 mm 2 mps 653 mmHg 87%
    03:00 +20°C° 0.4 mm 2 mps 653 mmHg 89%
    04:00 +20°C° 0.4 mm 2 mps 653 mmHg 92%
    05:00 +20°C° 0 mm 2 mps 653 mmHg 90%
    06:00 +21°C° 0 mm 2 mps 654 mmHg 88%
    07:00 +22°C° 0 mm 1 mps 654 mmHg 86%
    08:00 +25°C° 0 mm 1 mps 655 mmHg 72%
    09:00 +28°C° 0 mm 1 mps 656 mmHg 57%
    10:00 +32°C° 0 mm 1 mps 656 mmHg 43%
    11:00 +33°C° 0 mm 1 mps 656 mmHg 39%
    12:00 +35°C° 0 mm 1 mps 656 mmHg 34%
    13:00 +37°C° 0 mm 1 mps 656 mmHg 30%
    14:00 +36°C° 0 mm 1 mps 655 mmHg 33%
    15:00 +34°C° 0 mm 1 mps 654 mmHg 35%
    16:00 +32°C° 0 mm 1 mps 653 mmHg 37%
    17:00 +31°C° 0 mm 1 mps 653 mmHg 42%
    18:00 +29°C° 0 mm 1 mps 653 mmHg 47%
    19:00 +27°C° 0 mm 1 mps 653 mmHg 52%
    20:00 +26°C° 0 mm 1 mps 653 mmHg 56%
    21:00 +25°C° 0 mm 2 mps 654 mmHg 61%
    22:00 +25°C° 0 mm 2 mps 654 mmHg 66%
    23:00 +24°C° 0 mm 3 mps 654 mmHg 72%

    28 January, Monday

    Time Temperature Precipitation Wind Pressure Humidity
    00:00 +22°C° 0 mm 3 mps 653 mmHg 79%
    01:00 +21°C° 0 mm 3 mps 653 mmHg 85%
    02:00 +21°C° 0 mm 2 mps 653 mmHg 87%
    03:00 +20°C° 0 mm 2 mps 653 mmHg 88%
    04:00 +20°C° 0 mm 2 mps 653 mmHg 90%
    05:00 +21°C° 0.3 mm 1 mps 653 mmHg 88%
    06:00 +22°C° 0.3 mm 1 mps 654 mmHg 87%
    07:00 +22°C° 0.3 mm 1 mps 654 mmHg 85%
    08:00 +24°C° 0 mm 0 mps 655 mmHg 71%
    09:00 +27°C° 0 mm 0 mps 656 mmHg 56%
    10:00 +31°C° 0 mm 0 mps 657 mmHg 42%
    11:00 +32°C° 0 mm 0 mps 656 mmHg 38%
    12:00 +36°C° 0 mm 1 mps 656 mmHg 33%
    13:00 +37°C° 0 mm 1 mps 655 mmHg 29%
    14:00 +36°C° 0 mm 1 mps 654 mmHg 30%
    15:00 +35°C° 0 mm 1 mps 654 mmHg 30%
    16:00 +35°C° 0 mm 2 mps 653 mmHg 30%
    17:00 +32°C° 0 mm 2 mps 653 mmHg 35%
    18:00 +31°C° 0 mm 1 mps 653 mmHg 40%
    19:00 +29°C° 0 mm 1 mps 653 mmHg 45%
    20:00 +28°C° 0.3 mm 2 mps 653 mmHg 54%
    21:00 +26°C° 0.3 mm 2 mps 653 mmHg 62%
    22:00 +25°C° 0.3 mm 2 mps 653 mmHg 70%
    23:00 +24°C° 0 mm 2 mps 653 mmHg 73%
    Show more